Volver al catálogo

KOWSAR

ActivoCienciaSSO
NORAD 61769·PAYLOAD·🇮🇷 Iran
Este nombre de satélite aún no ha sido confirmado por fuentes oficiales.

Lanzado Nov 4, 2024 desde Vostochny Cosmodrome

Loading…

Próximos Pases (próximas 24 horas)

TLE

ActualizadoSource: Space-Track

Época: Sep 14, 2026, 14:39 UTC

1 61769U 24199AL  26257.61044323  .00035223  00000-0  44056-3 0  9996
2 61769  97.2757 135.5060 0002201 346.0027  14.1168 15.59739451148334

Sigue KOWSAR en tiempo real con AllMySat

Download on the App Store